User: anonymous   Login
Location: Langangen
(59.1000°N, 9.8000°E)
Time: 13:49:34
(UTC+02:00)
Language:

Iridium 60 - Orbit

View from above orbital plane
View from above orbital plane
View from above satellite
View from above satellite

Ground track
Ground track

The orbit data is extracted from the following two-line orbital elements,

1 25276U 98019E   16144.38577597  .00000166  00000-0  52303-4 0  9996
2 25276  86.3961  89.9746 0002260  85.5265 274.6189 14.34216473950197
Epoch (UTC): 23 May 2016 09:15:31
Eccentricity: 0.0002260
inclination: 86.3961°
perigee height: 776 km
apogee height: 779 km
right ascension of ascending node: 89.9746°
argument of perigee: 85.5265°
revolutions per day: 14.34216473
mean anomaly at epoch: 274.6189°
orbit number at epoch: 95019

The dashed part of the orbit path shows where the satellite is in the earth's shadow,  

DLR